Location: Bennemühlen
(52.5740°N, 9.7135°E)
Time: 08:15:01
(UTC+00:00)

Vanguard 2 Rocket - All Passes

Search period start: 16 February 2026 00:00
Search period end: 26 February 2026 00:00
Orbit: 553 x 3286 km, 32.9° (Epoch: 15 February)

Date Brightness Start Highest point End Pass type
(mag) Time Alt. Az. Time Alt. Az. Time Alt. Az.
16 Feb - 11:28:03 10° SSW 11:40:05 22° SSE 11:49:23 10° ESE daylight
16 Feb - 13:41:07 10° SW 13:53:34 29° S 14:02:02 10° SE daylight
16 Feb - 15:57:16 10° WSW 16:05:57 22° SSW 16:12:04 10° SSE daylight
17 Feb - 10:23:13 10° S 10:34:12 19° SSE 10:43:20 10° ESE daylight
17 Feb - 12:34:18 10° SW 12:47:55 29° S 12:57:33 10° ESE daylight
17 Feb - 14:49:38 10° WSW 15:01:00 27° SSW 15:08:39 10° SE daylight
17 Feb - 17:07:43 10° WSW 17:12:29 14° SW 17:16:21 10° S visible
18 Feb - 09:20:09 10° SSE 09:28:19 14° SE 09:35:43 10° ESE daylight
18 Feb - 11:28:00 10° SSW 11:41:59 27° SSE 11:52:34 10° ESE daylight
18 Feb - 13:42:12 10° WSW 13:55:37 31° S 14:04:43 10° SE daylight
18 Feb - 15:59:06 10° WSW 16:07:57 21° SSW 16:14:17 10° SSE daylight
19 Feb - 10:22:30 10° SSW 10:35:55 24° SSE 10:46:54 10° ESE daylight
19 Feb - 12:35:05 10° SW 12:49:52 32° S 13:00:19 10° ESE daylight
19 Feb - 14:51:08 10° WSW 15:03:00 27° SSW 15:11:03 10° SE daylight
19 Feb - 17:10:47 10° WSW 17:14:17 12° SW 17:17:19 10° SSW visible
20 Feb - 09:18:11 10° S 09:29:52 19° SSE 09:40:15 10° ESE daylight
20 Feb - 11:28:27 10° SW 11:43:49 31° SSE 11:55:25 10° ESE daylight
20 Feb - 13:43:28 10° WSW 13:57:35 32° S 14:07:14 10° SE daylight
20 Feb - 16:01:07 10° WSW 16:09:47 19° SW 16:16:11 10° S daylight
21 Feb - 08:15:54 10° SSE 08:23:58 14° SE 08:31:40 10° ESE daylight
21 Feb - 10:22:33 10° SSW 10:37:35 29° SSE 10:49:56 10° ESE daylight
21 Feb - 12:36:08 10° SW 12:51:45 35° S 13:02:54 10° ESE daylight
21 Feb - 14:52:47 10° WSW 15:04:51 27° SSW 15:13:15 10° SSE daylight
22 Feb - 09:17:34 10° SSW 09:31:22 24° SSE 09:43:40 10° ESE daylight
22 Feb - 11:29:17 10° SW 11:45:34 35° S 11:58:02 10° ESE daylight
22 Feb - 13:44:53 10° WSW 13:59:26 32° SSW 14:09:34 10° SE daylight
22 Feb - 16:03:25 10° WSW 16:11:29 17° SW 16:17:42 10° S daylight
23 Feb - 08:13:54 10° S 08:25:18 19° SE 08:36:13 10° ESE daylight
23 Feb - 10:23:05 10° SW 10:39:12 33° SSE 10:52:38 10° ESE daylight
23 Feb - 12:37:23 10° WSW 12:53:33 36° S 13:05:16 10° SE daylight
23 Feb - 14:54:35 10° WSW 15:06:34 25° SSW 15:15:11 10° SSE daylight
24 Feb - 07:12:52 10° SSE 07:19:32 13° SE 07:26:13 10° ESE daylight
24 Feb - 09:17:42 10° SSW 09:32:49 29° SSE 09:46:33 10° ESE daylight
24 Feb - 11:30:23 10° SW 11:47:17 37° S 12:00:28 10° ESE daylight
24 Feb - 13:46:28 10° WSW 14:01:09 31° SSW 14:11:41 10° SE daylight
24 Feb - 16:06:09 10° WSW 16:13:00 15° SW 16:18:36 10° SSW daylight
25 Feb - 08:13:22 10° S 08:26:35 23° SE 08:39:34 10° ESE daylight
25 Feb - 10:24:00 10° SW 10:40:47 36° SSE 10:55:06 10° ESE daylight
25 Feb - 12:38:50 10° WSW 12:55:15 36° SSW 13:07:30 10° SE daylight
25 Feb - 14:56:36 10° WSW 15:08:08 22° SW 15:16:47 10° S daylight
